EW2719 Weather Reports


time (UTC)temp
C
wind
direction
speed
KPH
gust
KPH
rain 1hr
cm
rain 24hr
cm
rain mn
cm
humidity
%
barometer
mb
20260507204508 8 136 0.0 3.2 0.00 0.00 0.00 83 1018.9
20260507203009 8 137 0.0 4.8 0.00 0.00 0.00 84 1018.7
20260507201509 8 138 0.0 4.8 0.00 0.00 0.00 83 1018.7
20260507200008 9 132 0.0 4.8 0.00 0.00 0.00 83 1018.7
20260507194505 9 119 0.0 3.2 0.00 0.00 0.00 82 1018.7
20260507193006 9 135 0.0 8.0 0.00 0.00 0.00 81 1018.7
20260507191502 9 126 1.6 6.4 0.00 0.00 0.00 80 1018.3
20260507190003 10 134 1.6 6.4 0.00 0.00 0.00 79 1018.2
20260507184606 10 129 0.0 6.4 0.00 0.00 0.00 77 1017.9
20260507183056 10 130 0.0 3.2 0.00 0.00 0.00 75 1017.7
20260507181555 11 133 1.6 4.8 0.00 0.00 0.00 72 1017.6
20260507180057 11 126 0.0 4.8 0.00 0.00 0.00 72 1017.7
20260507174552 12 144 0.0 6.4 0.00 0.00 0.00 69 1017.6
20260507173050 12 122 1.6 9.7 0.00 0.00 0.00 72 1017.6
20260507171550 11 129 3.2 8.0 0.00 0.00 0.00 72 1017.3
20260507170043 11 217 3.2 11.3 0.00 0.00 0.00 71 1017.1
20260507164542 12 130 1.6 8.0 0.00 0.00 0.00 70 1017.2
20260507163040 12 122 4.8 11.3 0.00 0.00 0.00 73 1017.0
20260507161546 12 107 1.6 9.7 0.00 0.00 0.00 76 1017.2
20260507160040 12 114 1.6 6.4 0.00 0.00 0.00 77 1017.1
20260507154538 12 101 0.0 4.8 0.00 0.00 0.00 78 1017.2
20260507153043 12 98 0.0 6.4 0.00 0.00 0.00 78 1017.1
20260507151536 12 105 0.0 4.8 0.00 0.00 0.00 78 1017.0
20260507150038 12 129 0.0 4.8 0.00 0.00 0.00 77 1017.0
20260507144535 12 111 0.0 1.6 0.00 0.00 0.00 77 1017.0
20260507143037 12 106 0.0 3.2 0.00 0.00 0.00 76 1017.0
20260507141534 12 97 0.0 4.8 0.00 0.00 0.00 77 1017.0
20260507140038 12 82 0.0 8.0 0.00 0.00 0.00 76 1017.1
20260507134537 12 94 3.2 9.7 0.00 0.00 0.00 76 1017.0
20260507133034 12 117 3.2 11.3 0.00 0.00 0.00 76 1017.0
20260507131531 12 108 0.0 9.7 0.00 0.00 0.00 76 1017.0
20260507130038 11 123 3.2 9.7 0.00 0.00 0.00 75 1016.9
20260507124530 11 110 1.6 12.9 0.00 0.00 0.00 75 1016.8
20260507123029 12 105 3.2 12.9 0.00 0.00 0.00 75 1016.8
20260507121527 12 113 1.6 9.7 0.00 0.00 0.00 75 1016.7
20260507120026 12 150 1.6 6.4 0.00 0.00 0.00 75 1016.5
20260507114525 12 57 0.0 3.2 0.00 0.00 0.00 73 1016.5
20260507113024 12 36 0.0 6.4 0.00 0.00 0.00 75 1016.5
20260507111526 12 10 3.2 17.7 0.00 0.00 0.00 70 1016.5
20260507110023 13 305 3.2 9.7 0.00 0.00 0.00 68 1016.3
20260507104521 12 17 0.0 9.7 0.00 0.00 0.00 69 1016.4
20260507103028 13 36 1.6 6.4 0.00 0.00 0.00 68 1016.3
20260507101519 13 30 0.0 6.4 0.00 0.00 0.00 68 1016.3
20260507100021 12 122 1.6 9.7 0.00 0.00 0.00 74 1016.1
20260507094513 12 323 0.0 6.4 0.00 0.00 0.00 69 1016.2
20260507093011 11 326 0.0 6.4 0.00 0.00 0.00 75 1016.1
20260507091513 12 333 0.0 11.3 0.00 0.00 0.00 74 1016.1
20260507090008 11 14 1.6 8.0 0.00 0.00 0.00 75 1016.2
20260507084506 12 266 1.6 11.3 0.00 0.00 0.00 75 1016.0
20260507083003 11 202 0.0 8.0 0.00 0.00 0.00 76 1016.0
20260507081610 11 311 1.6 8.0 0.00 0.00 0.00 76 1015.8
20260507080115 11 39 0.0 3.2 0.00 0.00 0.00 77 1015.7
20260507074553 11 306 1.6 6.4 0.00 0.00 0.00 79 1015.5
20260507073049 10 306 0.0 6.4 0.00 0.00 0.00 80 1015.5
20260507071604 10 271 0.0 4.8 0.00 0.00 0.00 79 1015.5
20260507070042 10 246 0.0 4.8 0.00 0.00 0.00 80 1015.4
20260507064537 9 240 1.6 6.4 0.00 0.00 0.00 82 1015.4
20260507063041 8 254 1.6 4.8 0.00 0.00 0.00 83 1015.3
20260507061531 8 272 1.6 4.8 0.00 0.00 0.00 85 1015.2
20260507060030 8 292 0.0 1.6 0.00 0.00 0.00 85 1015.0
20260507054525 7 320 3.2 6.4 0.00 0.00 0.00 87 1014.9
20260507053021 7 204 0.0 0.0 0.00 0.00 0.00 88 1014.6
20260507051527 5 204 0.0 1.6 0.00 0.00 0.00 88 1014.5
20260507050013 4 283 0.0 4.8 0.00 0.00 0.00 88 1014.4
20260507044508 3 276 4.8 6.4 0.00 0.00 0.00 88 1014.3
20260507043010 3 288 1.6 6.4 0.00 0.00 0.00 89 1014.2
20260507041505 2 284 1.6 8.0 0.00 0.00 0.00 88 1014.0
20260507040118 2 277 3.2 8.0 0.00 0.00 0.00 88 1013.9
20260507034601 2 269 0.0 0.0 0.00 0.00 0.00 88 1013.8
20260507033101 2 293 0.0 4.8 0.00 0.00 0.00 88 1013.7
20260507031557 2 282 0.0 6.4 0.00 0.00 0.00 87 1013.8
20260507030055 2 300 4.8 8.0 0.00 0.00 0.00 86 1013.7
20260507024600 3 292 3.2 8.0 0.00 0.00 0.00 86 1013.7
20260507023047 3 339 3.2 8.0 0.00 0.00 0.00 86 1013.6
20260507021545 3 17 0.0 4.8 0.00 0.00 0.00 86 1013.4
20260507020045 3 360 0.0 6.4 0.00 0.00 0.00 85 1013.3
20260507014550 3 344 4.8 8.0 0.00 0.00 0.00 84 1013.3
20260507013036 4 15 3.2 6.4 0.00 0.00 0.00 82 1013.3
20260507011540 4 23 4.8 6.4 0.00 0.00 0.00 82 1013.2
20260507010036 4 19 4.8 6.4 0.00 0.00 0.00 81 1013.3
20260507004537 4 5 3.2 8.0 0.00 0.00 0.00 80 1013.3
20260507003031 5 5 6.4 9.7 0.00 0.00 0.00 79 1013.2
20260507001531 5 17 6.4 9.7 0.00 0.00 0.00 80 1013.1
20260507000029 5 15 8.0 12.9 0.00 0.00 0.00 79 1013.1
20260506234527 5 11 9.7 14.5 0.00 0.00 0.00 79 1013.1
20260506233024 5 15 6.4 11.3 0.00 0.00 0.00 77 1013.2
20260506231523 5 5 6.4 9.7 0.00 0.00 0.00 77 1013.2
20260506230021 5 5 8.0 12.9 0.00 0.00 0.00 75 1013.1
20260506224520 5 15 6.4 9.7 0.00 0.00 0.00 74 1013.0
20260506223017 5 10 6.4 9.7 0.00 0.00 0.00 74 1013.0
20260506221513 5 360 3.2 6.4 0.00 0.00 0.00 74 1012.9
20260506220028 5 355 4.8 9.7 0.00 0.00 0.00 74 1013.0
20260506214510 6 9 4.8 11.3 0.00 0.00 0.00 73 1012.7
20260506213010 6 15 6.4 12.9 0.00 0.00 0.00 74 1012.5
20260506211510 6 355 8.0 12.9 0.00 0.00 0.00 74 1012.7
20260506210013 6 360 6.4 12.9 0.00 0.00 0.00 76 1012.7